QZS-6 (MICHIBIKI-6)

Last updated on Thu Sep 10 2026 00:03:01 GMT+0000 (Coordinated Universal Time)

1 62876U 25023A 26252.60351505 -.00000254 00000+0 00000+0 0 9993 2 62876 0.0338 73.0923 0001626 114.7534 108.5778 1.00270583 5792
UTC large
Height (km)
Speed (km/s)
/
Latitude / Longitude
Inclination (degrees)
Orbital Period (minutes)
Azimuth
Elevation
Range (km)
Doppler Factor

Next 0 passes for location: London (51.5072 / 0.1276)

No passes found over London.
QZS-6 (MICHIBIKI-6)